Simultaneous Nadir Overpasses (SNOs) Predictions

Prediction of SNOs between NOAA-19 and NPP Satellite Orbit:

Table of predicted SNOs for the next 14.0 days since TLE Epoch: 6/12/2021
Index Date (NOAA-19) Time (NOAA-19) Lat,Lon (NOAA-19) SZA (NOAA-19 ) Date (NPP) Time (NPP) Lat,Lon (NPP) SZA (NPP ) Distance(km) Time Diff (sec)
1 06/20/2021 19:53:07 78.23,-144.38 56.11 06/20/2021 19:54:21 78.20,-144.41 56.05 3.82 74
2 06/20/2021 20:44:06 -78.22, 22.77 123.90 06/20/2021 20:45:06 -78.21, 22.84 123.94 1.57 60
3 06/20/2021 21:35:08 78.21,-170.04 56.10 06/20/2021 21:35:52 78.24,-170.01 56.11 3.73 44
4 06/20/2021 22:26:06 -78.23, -2.65 123.90 06/20/2021 22:26:36 -78.21, -2.55 123.93 2.77 30
5 06/20/2021 23:17:07 78.22, 164.54 56.11 06/20/2021 23:17:21 78.24, 164.60 56.11 2.99 14
6 06/21/2021 00:08:05 -78.24, -28.08 123.89 06/21/2021 00:08:06 -78.26, -28.16 123.87 2.53 1
7 06/21/2021 00:59:07 78.23, 139.11 56.11 06/21/2021 00:58:51 78.25, 139.21 56.12 2.77 16
8 06/21/2021 01:50:05 -78.25, -53.50 123.89 06/21/2021 01:49:36 -78.26, -53.54 123.87 1.22 29
9 06/21/2021 02:41:07 78.24, 113.69 56.11 06/21/2021 02:40:21 78.25, 113.82 56.12 3.18 46
10 06/21/2021 03:32:05 -78.26, -78.92 123.89 06/21/2021 03:31:06 -78.26, -78.93 123.86 0.52 59
11 06/21/2021 04:23:07 78.25, 88.26 56.12 06/21/2021 04:21:51 78.25, 88.44 56.13 4.01 76



Historial Predications of SNOs between NOAA-19 and NPP
